sat.trackr.live / text

‹ back to catalog

STARLINK-35158

NORAD 66381 · 2025-257B

PAYLOAD ACTIVE UNKNOWN

§ Identity

Operator
Country
US
Launch date
2025-11-09
Launch site
AFETR
Launch vehicle
Mass (kg)
RCS (m²)

Purposes: comms

External: N2YO · Heavens-Above · Gunter

§ Orbital elements

Epoch: 2026-09-20T12:59:49.324704Z

Period
93.85 min
Inclination
53.1594°
Eccentricity
0.0001172
Mean motion
15.34396964 rev/d
Perigee alt
461.9 km
Apogee alt
463.5 km
Semi-major
6,840.8 km
B*
7.5557e-4
RAAN
29.3057°
Arg perigee
91.5219°
Mean anomaly
268.5918°
Rev number
4,960

§ Raw data

STARLINK-351581 66381U 25257B   26263.54154311  .00025235  00000+0  75557-3 0  99962 66381  53.1594  29.3057 0001172  91.5219 268.5918 15.34396964 49605

JSON: /api/v1/satellites/66381 · /tle

For live sub-satellite position, see the globe view (requires WebGL).

§ Visibility from observer

Set your observer location to see the next 7 days of passes ≥ 10°. The values pass through the URL so the page stays shareable.

No JS? Fill the form by hand. The geolocation button needs JavaScript.